Year,Month,Day,Hour,Minute,Value (Times are PST for temperature in C)
2012,07,05,00,00,9.10
2012,07,05,00,01,9.10
2012,07,05,00,02,9.10
2012,07,05,00,03,9.10
2012,07,05,00,04,9.10
2012,07,05,00,05,9.00
2012,07,05,00,06,9.00
2012,07,05,00,07,9.00
2012,07,05,00,08,9.00
2012,07,05,00,09,9.00
2012,07,05,00,10,9.00
2012,07,05,00,11,9.00
2012,07,05,00,12,8.90
2012,07,05,00,13,8.90
2012,07,05,00,14,8.90
2012,07,05,00,15,8.90
2012,07,05,00,16,8.90
2012,07,05,00,17,8.90
2012,07,05,00,18,8.90
2012,07,05,00,19,8.90
2012,07,05,00,20,8.90
2012,07,05,00,21,8.90
2012,07,05,00,22,8.80
2012,07,05,00,23,8.80
2012,07,05,00,24,8.80
2012,07,05,00,25,8.80
2012,07,05,00,26,8.80
2012,07,05,00,27,8.80
2012,07,05,00,28,8.80
2012,07,05,00,29,8.80
2012,07,05,00,30,8.70
2012,07,05,00,31,8.70
2012,07,05,00,32,8.70
2012,07,05,00,33,8.70
2012,07,05,00,34,8.70
2012,07,05,00,35,8.70
2012,07,05,00,36,8.70
2012,07,05,00,37,8.70
2012,07,05,00,38,8.70
2012,07,05,00,39,8.60
2012,07,05,00,40,8.60
2012,07,05,00,41,8.60
2012,07,05,00,42,8.60
2012,07,05,00,43,8.60
2012,07,05,00,44,8.60
2012,07,05,00,45,8.60
2012,07,05,00,46,8.60
2012,07,05,00,47,8.60
2012,07,05,00,48,8.60
2012,07,05,00,49,8.60
2012,07,05,00,50,8.50
2012,07,05,00,51,8.50
2012,07,05,00,52,8.50
2012,07,05,00,53,8.50
2012,07,05,00,54,8.50
2012,07,05,00,55,8.50
2012,07,05,00,56,8.40
2012,07,05,00,57,8.40
2012,07,05,00,58,8.40
2012,07,05,00,59,8.40
2012,07,05,01,00,8.40
2012,07,05,01,01,8.40
2012,07,05,01,02,8.40
2012,07,05,01,03,8.40
2012,07,05,01,04,8.40
2012,07,05,01,05,8.40
2012,07,05,01,06,8.40
2012,07,05,01,07,8.40
2012,07,05,01,08,8.40
2012,07,05,01,09,8.30
2012,07,05,01,10,8.30
2012,07,05,01,11,8.30
2012,07,05,01,12,8.30
2012,07,05,01,13,8.30
2012,07,05,01,14,8.30
2012,07,05,01,15,8.30
2012,07,05,01,16,8.30
2012,07,05,01,17,8.30
2012,07,05,01,18,8.30
2012,07,05,01,19,8.30
2012,07,05,01,20,8.20
2012,07,05,01,21,8.20
2012,07,05,01,22,8.20
2012,07,05,01,23,8.20
2012,07,05,01,24,8.20
2012,07,05,01,25,8.20
2012,07,05,01,26,8.10
2012,07,05,01,27,8.10
2012,07,05,01,28,8.10
2012,07,05,01,29,8.10
2012,07,05,01,30,8.10
2012,07,05,01,31,8.10
2012,07,05,01,32,8.10
2012,07,05,01,33,8.10
2012,07,05,01,34,8.10
2012,07,05,01,35,8.10
2012,07,05,01,36,8.10
2012,07,05,01,37,8.10
2012,07,05,01,38,8.10
2012,07,05,01,39,8.20
2012,07,05,01,40,8.10
2012,07,05,01,41,8.20
2012,07,05,01,42,8.10
2012,07,05,01,43,8.10
2012,07,05,01,44,8.20
2012,07,05,01,45,8.20
2012,07,05,01,46,8.20
2012,07,05,01,47,8.20
2012,07,05,01,48,8.20
2012,07,05,01,49,8.10
2012,07,05,01,50,8.10
2012,07,05,01,51,8.10
2012,07,05,01,52,8.10
2012,07,05,01,53,8.10
2012,07,05,01,54,8.10
2012,07,05,01,55,8.10
2012,07,05,01,56,8.10
2012,07,05,01,57,8.10
2012,07,05,01,58,8.10
2012,07,05,01,59,8.10
2012,07,05,02,00,8.10
2012,07,05,02,01,8.10
2012,07,05,02,02,8.00
2012,07,05,02,03,8.00
2012,07,05,02,04,7.90
2012,07,05,02,05,7.90
2012,07,05,02,06,7.90
2012,07,05,02,07,7.90
2012,07,05,02,08,7.90
2012,07,05,02,09,7.90
2012,07,05,02,10,7.80
2012,07,05,02,11,7.80
2012,07,05,02,12,7.80
2012,07,05,02,13,7.80
2012,07,05,02,14,7.80
2012,07,05,02,15,7.80
2012,07,05,02,16,7.80
2012,07,05,02,17,7.80
2012,07,05,02,18,7.80
2012,07,05,02,19,7.80
2012,07,05,02,20,7.80
2012,07,05,02,21,7.80
2012,07,05,02,22,7.80
2012,07,05,02,23,7.80
2012,07,05,02,24,7.80
2012,07,05,02,25,7.80
2012,07,05,02,26,7.80
2012,07,05,02,27,7.80
2012,07,05,02,28,7.80
2012,07,05,02,29,7.80
2012,07,05,02,30,7.80
2012,07,05,02,31,7.70
2012,07,05,02,32,7.70
2012,07,05,02,33,7.70
2012,07,05,02,34,7.70
2012,07,05,02,35,7.70
2012,07,05,02,36,7.70
2012,07,05,02,37,7.70
2012,07,05,02,38,7.70
2012,07,05,02,39,7.60
2012,07,05,02,40,7.60
2012,07,05,02,41,7.60
2012,07,05,02,42,7.60
2012,07,05,02,43,7.60
2012,07,05,02,44,7.60
2012,07,05,02,45,7.60
2012,07,05,02,46,7.60
2012,07,05,02,47,7.60
2012,07,05,02,48,7.60
2012,07,05,02,49,7.50
2012,07,05,02,50,7.50
2012,07,05,02,51,7.50
2012,07,05,02,52,7.40
2012,07,05,02,53,7.40
2012,07,05,02,54,7.40
2012,07,05,02,55,7.40
2012,07,05,02,56,7.50
2012,07,05,02,57,7.50
2012,07,05,02,58,7.50
2012,07,05,02,59,7.50
2012,07,05,03,00,7.60
2012,07,05,03,01,7.60
2012,07,05,03,02,7.60
2012,07,05,03,06,7.60
2012,07,05,03,07,7.60
2012,07,05,03,08,7.60
2012,07,05,03,09,7.60
2012,07,05,03,10,7.60
2012,07,05,03,11,7.50
2012,07,05,03,12,7.50
2012,07,05,03,13,7.50
2012,07,05,03,14,7.50
2012,07,05,03,15,7.50
2012,07,05,03,16,7.50
2012,07,05,03,17,7.50
2012,07,05,03,18,7.50
2012,07,05,03,19,7.40
2012,07,05,03,20,7.40
2012,07,05,03,21,7.40
2012,07,05,03,22,7.40
2012,07,05,03,23,7.40
2012,07,05,03,24,7.40
2012,07,05,03,25,7.40
2012,07,05,03,26,7.40
2012,07,05,03,27,7.40
2012,07,05,03,28,7.40
2012,07,05,03,29,7.40
2012,07,05,03,30,7.40
2012,07,05,03,31,7.40
2012,07,05,03,32,7.40
2012,07,05,03,33,7.40
2012,07,05,03,34,7.40
2012,07,05,03,35,7.40
2012,07,05,03,36,7.40
2012,07,05,03,37,7.40
2012,07,05,03,38,7.40
2012,07,05,03,39,7.40
2012,07,05,03,40,7.40
2012,07,05,03,41,7.40
2012,07,05,03,42,7.40
2012,07,05,03,43,7.30
2012,07,05,03,44,7.30
2012,07,05,03,45,7.30
2012,07,05,03,46,7.30
2012,07,05,03,47,7.30
2012,07,05,03,48,7.30
2012,07,05,03,49,7.30
2012,07,05,03,50,7.30
2012,07,05,03,51,7.30
2012,07,05,03,52,7.20
2012,07,05,03,53,7.20
2012,07,05,03,54,7.20
2012,07,05,03,55,7.20
2012,07,05,03,56,7.20
2012,07,05,03,57,7.20
2012,07,05,03,58,7.20
2012,07,05,03,59,7.20
2012,07,05,04,00,7.20
2012,07,05,04,01,7.20
2012,07,05,04,02,7.10
2012,07,05,04,03,7.10
2012,07,05,04,04,7.10
2012,07,05,04,05,7.10
2012,07,05,04,06,7.10
2012,07,05,04,07,7.10
2012,07,05,04,08,7.10
2012,07,05,04,09,7.10
2012,07,05,04,10,7.10
2012,07,05,04,11,7.10
2012,07,05,04,12,7.10
2012,07,05,04,13,7.10
2012,07,05,04,14,7.10
2012,07,05,04,15,7.10
2012,07,05,04,16,7.10
2012,07,05,04,17,7.10
2012,07,05,04,18,7.10
2012,07,05,04,19,7.10
2012,07,05,04,20,7.10
2012,07,05,04,21,7.10
2012,07,05,04,22,7.10
2012,07,05,04,23,7.10
2012,07,05,04,24,7.10
2012,07,05,04,25,7.10
2012,07,05,04,26,7.10
2012,07,05,04,27,7.10
2012,07,05,04,28,7.10
2012,07,05,04,29,7.10
2012,07,05,04,30,7.10
2012,07,05,04,31,7.10
2012,07,05,04,32,7.10
2012,07,05,04,33,7.10
2012,07,05,04,34,7.10
2012,07,05,04,35,7.00
2012,07,05,04,36,7.00
2012,07,05,04,37,7.00
2012,07,05,04,38,6.90
2012,07,05,04,39,6.90
2012,07,05,04,40,6.90
2012,07,05,04,41,6.90
2012,07,05,04,42,6.90
2012,07,05,04,43,6.90
2012,07,05,04,44,6.90
2012,07,05,04,45,6.90
2012,07,05,04,46,6.80
2012,07,05,04,47,6.80
2012,07,05,04,48,6.80
2012,07,05,04,49,6.80
2012,07,05,04,50,6.80
2012,07,05,04,51,6.80
2012,07,05,04,52,6.80
2012,07,05,04,53,6.80
2012,07,05,04,54,6.80
2012,07,05,04,55,6.80
2012,07,05,04,56,6.80
2012,07,05,04,57,6.80
2012,07,05,04,58,6.80
2012,07,05,04,59,6.80
2012,07,05,05,00,6.80
2012,07,05,05,01,6.70
2012,07,05,05,02,6.70
2012,07,05,05,03,6.70
2012,07,05,05,04,6.70
2012,07,05,05,05,6.70
2012,07,05,05,06,6.70
2012,07,05,05,07,6.70
2012,07,05,05,08,6.70
2012,07,05,05,09,6.70
2012,07,05,05,10,6.70
2012,07,05,05,11,6.70
2012,07,05,05,12,6.70
2012,07,05,05,13,6.70
2012,07,05,05,14,6.70
2012,07,05,05,15,6.70
2012,07,05,05,16,6.70
2012,07,05,05,17,6.70
2012,07,05,05,18,6.70
2012,07,05,05,19,6.60
2012,07,05,05,20,6.60
2012,07,05,05,21,6.60
2012,07,05,05,22,6.60
2012,07,05,05,23,6.60
2012,07,05,05,24,6.60
2012,07,05,05,25,6.60
2012,07,05,05,26,6.60
2012,07,05,05,27,6.60
2012,07,05,05,28,6.60
2012,07,05,05,29,6.60
2012,07,05,05,30,6.60
2012,07,05,05,31,6.60
2012,07,05,05,32,6.60
2012,07,05,05,33,6.60
2012,07,05,05,34,6.60
2012,07,05,05,35,6.60
2012,07,05,05,36,6.60
2012,07,05,05,37,6.60
2012,07,05,05,38,6.60
2012,07,05,05,39,6.70
2012,07,05,05,40,6.70
2012,07,05,05,41,6.70
2012,07,05,05,42,6.70
2012,07,05,05,43,6.70
2012,07,05,05,44,6.70
2012,07,05,05,45,6.80
2012,07,05,05,46,6.80
2012,07,05,05,47,6.80
2012,07,05,05,48,6.80
2012,07,05,05,49,6.80
2012,07,05,05,50,6.80
2012,07,05,05,51,6.80
2012,07,05,05,52,6.80
2012,07,05,05,53,6.70
2012,07,05,05,54,6.70
2012,07,05,05,55,6.70
2012,07,05,05,56,6.70
2012,07,05,05,57,6.70
2012,07,05,05,58,6.70
2012,07,05,05,59,6.70
2012,07,05,06,00,6.70
2012,07,05,06,01,6.70
2012,07,05,06,02,6.60
2012,07,05,06,03,6.60
2012,07,05,06,04,6.70
2012,07,05,06,05,6.70
2012,07,05,06,06,6.70
2012,07,05,06,07,6.70
2012,07,05,06,08,6.70
2012,07,05,06,09,6.70
2012,07,05,06,10,6.70
2012,07,05,06,11,6.80
2012,07,05,06,12,6.80
2012,07,05,06,13,6.80
2012,07,05,06,14,6.80
2012,07,05,06,15,6.80
2012,07,05,06,16,6.90
2012,07,05,06,17,6.90
2012,07,05,06,18,6.90
2012,07,05,06,19,6.90
2012,07,05,06,20,6.90
2012,07,05,06,21,6.90
2012,07,05,06,22,7.00
2012,07,05,06,23,7.00
2012,07,05,06,24,7.00
2012,07,05,06,25,7.10
2012,07,05,06,26,7.10
2012,07,05,06,27,7.10
2012,07,05,06,28,7.10
2012,07,05,06,29,7.10
2012,07,05,06,30,7.20
2012,07,05,06,31,7.20
2012,07,05,06,32,7.20
2012,07,05,06,33,7.20
2012,07,05,06,34,7.20
2012,07,05,06,35,7.20
2012,07,05,06,36,7.30
2012,07,05,06,37,7.30
2012,07,05,06,38,7.30
2012,07,05,06,39,7.30
2012,07,05,06,40,7.40
2012,07,05,06,41,7.40
2012,07,05,06,42,7.40
2012,07,05,06,43,7.40
2012,07,05,06,44,7.50
2012,07,05,06,45,7.50
2012,07,05,06,46,7.60
2012,07,05,06,47,7.60
2012,07,05,06,48,7.70
2012,07,05,06,49,7.70
2012,07,05,06,50,7.80
2012,07,05,06,51,7.90
2012,07,05,06,52,7.90
2012,07,05,06,53,8.00
2012,07,05,06,54,8.10
2012,07,05,06,55,8.10
2012,07,05,06,56,8.20
2012,07,05,06,57,8.30
2012,07,05,06,58,8.30
2012,07,05,06,59,8.40
2012,07,05,07,00,8.50
2012,07,05,07,01,8.60
2012,07,05,07,02,8.80
2012,07,05,07,03,8.80
2012,07,05,07,04,8.90
2012,07,05,07,05,8.90
2012,07,05,07,06,9.00
2012,07,05,07,07,9.10
2012,07,05,07,08,9.10
2012,07,05,07,09,9.10
2012,07,05,07,10,9.20
2012,07,05,07,11,9.30
2012,07,05,07,12,9.30
2012,07,05,07,13,9.30
2012,07,05,07,14,9.40
2012,07,05,07,15,9.40
2012,07,05,07,16,9.40
2012,07,05,07,17,9.40
2012,07,05,07,18,9.50
2012,07,05,07,19,9.50
2012,07,05,07,20,9.60
2012,07,05,07,21,9.70
2012,07,05,07,22,9.80
2012,07,05,07,23,9.90
2012,07,05,07,24,10.00
2012,07,05,07,25,10.10
2012,07,05,07,26,10.20
2012,07,05,07,27,10.30
2012,07,05,07,28,10.50
2012,07,05,07,29,10.60
2012,07,05,07,30,10.70
2012,07,05,07,31,10.70
2012,07,05,07,32,10.80
2012,07,05,07,33,10.80
2012,07,05,07,34,10.90
2012,07,05,07,35,10.90
2012,07,05,07,36,10.90
2012,07,05,07,37,11.00
2012,07,05,07,38,11.00
2012,07,05,07,39,11.10
2012,07,05,07,40,11.10
2012,07,05,07,41,11.20
2012,07,05,07,42,11.20
2012,07,05,07,43,11.30
2012,07,05,07,44,11.30
2012,07,05,07,45,11.40
2012,07,05,07,46,11.40
2012,07,05,07,47,11.50
2012,07,05,07,48,11.60
2012,07,05,07,49,11.60
2012,07,05,07,50,11.70
2012,07,05,07,51,11.70
2012,07,05,07,52,11.80
2012,07,05,07,53,11.80
2012,07,05,07,54,11.90
2012,07,05,07,55,11.90
2012,07,05,07,56,12.00
2012,07,05,07,57,12.00
2012,07,05,07,58,12.10
2012,07,05,07,59,12.20
2012,07,05,08,00,12.20
2012,07,05,08,01,12.30
2012,07,05,08,02,12.30
2012,07,05,08,03,12.40
2012,07,05,08,04,12.40
2012,07,05,08,05,12.50
2012,07,05,08,06,12.50
2012,07,05,08,07,12.60
2012,07,05,08,08,12.70
2012,07,05,08,09,12.80
2012,07,05,08,10,12.90
2012,07,05,08,11,12.90
2012,07,05,08,12,13.00
2012,07,05,08,13,13.10
2012,07,05,08,14,13.10
2012,07,05,08,15,13.20
2012,07,05,08,16,13.30
2012,07,05,08,17,13.40
2012,07,05,08,18,13.40
2012,07,05,08,19,13.50
2012,07,05,08,20,13.50
2012,07,05,08,21,13.60
2012,07,05,08,22,13.70
2012,07,05,08,23,13.70
2012,07,05,08,24,13.80
2012,07,05,08,25,13.90
2012,07,05,08,26,13.90
2012,07,05,08,27,14.00
2012,07,05,08,28,14.10
2012,07,05,08,29,14.20
2012,07,05,08,30,14.20
2012,07,05,08,31,14.30
2012,07,05,08,32,14.40
2012,07,05,08,33,14.40
2012,07,05,08,34,14.50
2012,07,05,08,35,14.60
2012,07,05,08,36,14.70
2012,07,05,08,37,14.70
2012,07,05,08,38,14.80
2012,07,05,08,39,14.80
2012,07,05,08,40,14.90
2012,07,05,08,41,15.00
2012,07,05,08,42,15.00
2012,07,05,08,43,15.00
2012,07,05,08,44,15.10
2012,07,05,08,45,15.20
2012,07,05,08,46,15.30
2012,07,05,08,47,15.30
2012,07,05,08,48,15.40
2012,07,05,08,49,15.50
2012,07,05,08,50,15.50
2012,07,05,08,51,15.60
2012,07,05,08,52,15.60
2012,07,05,08,53,15.60
2012,07,05,08,54,15.70
2012,07,05,08,55,15.70
2012,07,05,08,56,15.80
2012,07,05,08,57,15.80
2012,07,05,08,58,15.90
2012,07,05,08,59,15.90
2012,07,05,09,00,16.00
2012,07,05,09,01,16.10
2012,07,05,09,02,16.10
2012,07,05,09,03,16.10
2012,07,05,09,04,16.10
2012,07,05,09,05,16.20
2012,07,05,09,06,16.30
2012,07,05,09,07,16.30
2012,07,05,09,08,16.30
2012,07,05,09,09,16.40
2012,07,05,09,10,16.40
2012,07,05,09,11,16.40
2012,07,05,09,12,16.50
2012,07,05,09,13,16.50
2012,07,05,09,14,16.40
2012,07,05,09,15,16.40
2012,07,05,09,16,16.40
2012,07,05,09,17,16.40
2012,07,05,09,18,16.40
2012,07,05,09,19,16.50
2012,07,05,09,20,16.50
2012,07,05,09,21,16.50
2012,07,05,09,22,16.50
2012,07,05,09,23,16.50
2012,07,05,09,24,16.60
2012,07,05,09,25,16.60
2012,07,05,09,26,16.60
2012,07,05,09,27,16.70
2012,07,05,09,28,16.70
2012,07,05,09,29,16.80
2012,07,05,09,30,16.90
2012,07,05,09,31,17.00
2012,07,05,09,32,17.00
2012,07,05,09,33,17.10
2012,07,05,09,34,17.10
2012,07,05,09,35,17.10
2012,07,05,09,36,17.10
2012,07,05,09,37,17.00
2012,07,05,09,38,17.00
2012,07,05,09,39,16.90
2012,07,05,09,40,17.00
2012,07,05,09,41,17.00
2012,07,05,09,42,17.10
2012,07,05,09,43,17.10
2012,07,05,09,44,17.30
2012,07,05,09,45,17.40
2012,07,05,09,46,17.50
2012,07,05,09,47,17.60
2012,07,05,09,48,17.60
2012,07,05,09,49,17.70
2012,07,05,09,50,17.70
2012,07,05,09,51,17.70
2012,07,05,09,52,17.70
2012,07,05,09,53,17.70
2012,07,05,09,54,17.70
2012,07,05,09,55,17.70
2012,07,05,09,56,17.80
2012,07,05,09,57,17.80
2012,07,05,09,58,17.90
2012,07,05,09,59,18.00
2012,07,05,10,00,18.00
2012,07,05,10,01,18.00
2012,07,05,10,02,18.00
2012,07,05,10,03,18.10
2012,07,05,10,04,18.10
2012,07,05,10,05,18.10
2012,07,05,10,06,18.10
2012,07,05,10,07,18.20
2012,07,05,10,08,18.20
2012,07,05,10,09,18.20
2012,07,05,10,10,18.20
2012,07,05,10,11,18.20
2012,07,05,10,12,18.20
2012,07,05,10,13,18.10
2012,07,05,10,14,18.10
2012,07,05,10,15,18.10
2012,07,05,10,16,18.00
2012,07,05,10,17,18.00
2012,07,05,10,18,17.90
2012,07,05,10,19,18.00
2012,07,05,10,20,18.00
2012,07,05,10,21,18.10
2012,07,05,10,22,18.10
2012,07,05,10,23,18.10
2012,07,05,10,24,18.00
2012,07,05,10,25,17.90
2012,07,05,10,26,17.80
2012,07,05,10,27,17.80
2012,07,05,10,28,17.80
2012,07,05,10,29,17.70
2012,07,05,10,30,17.70
2012,07,05,10,31,17.70
2012,07,05,10,32,17.80
2012,07,05,10,33,17.80
2012,07,05,10,34,17.80
2012,07,05,10,35,17.80
2012,07,05,10,36,17.80
2012,07,05,10,37,17.80
2012,07,05,10,38,17.70
2012,07,05,10,39,17.70
2012,07,05,10,40,17.60
2012,07,05,10,41,17.60
2012,07,05,10,42,17.70
2012,07,05,10,43,17.70
2012,07,05,10,44,17.70
2012,07,05,10,45,17.70
2012,07,05,10,46,17.80
2012,07,05,10,47,17.90
2012,07,05,10,48,17.90
2012,07,05,10,49,17.90
2012,07,05,10,50,17.90
2012,07,05,10,51,17.90
2012,07,05,10,52,17.80
2012,07,05,10,53,17.80
2012,07,05,10,54,17.80
2012,07,05,10,55,17.70
2012,07,05,10,56,17.60
2012,07,05,10,57,17.60
2012,07,05,10,58,17.60
2012,07,05,10,59,17.70
2012,07,05,11,00,17.80
2012,07,05,11,01,17.80
2012,07,05,11,02,17.80
2012,07,05,11,03,17.70
2012,07,05,11,04,17.70
2012,07,05,11,05,17.70
2012,07,05,11,06,17.60
2012,07,05,11,07,17.50
2012,07,05,11,08,17.50
2012,07,05,11,09,17.50
2012,07,05,11,10,17.60
2012,07,05,11,11,17.60
2012,07,05,11,12,17.70
2012,07,05,11,13,17.70
2012,07,05,11,14,17.70
2012,07,05,11,15,17.80
2012,07,05,11,16,17.80
2012,07,05,11,17,18.00
2012,07,05,11,18,18.10
2012,07,05,11,19,18.20
2012,07,05,11,20,18.30
2012,07,05,11,21,18.30
2012,07,05,11,22,18.30
2012,07,05,11,23,18.40
2012,07,05,11,24,18.40
2012,07,05,11,25,18.40
2012,07,05,11,26,18.30
2012,07,05,11,27,18.20
2012,07,05,11,28,18.20
2012,07,05,11,29,18.30
2012,07,05,11,30,18.30
2012,07,05,11,31,18.30
2012,07,05,11,32,18.30
2012,07,05,11,33,18.30
2012,07,05,11,34,18.30
2012,07,05,11,35,18.40
2012,07,05,11,36,18.50
2012,07,05,11,37,18.60
2012,07,05,11,38,18.60
2012,07,05,11,39,18.70
2012,07,05,11,40,18.70
2012,07,05,11,41,18.80
2012,07,05,11,42,18.80
2012,07,05,11,43,18.80
2012,07,05,11,44,18.70
2012,07,05,11,45,18.80
2012,07,05,11,46,18.80
2012,07,05,11,47,18.80
2012,07,05,11,48,18.80
2012,07,05,11,49,18.80
2012,07,05,11,50,18.80
2012,07,05,11,51,18.70
2012,07,05,11,52,18.70
2012,07,05,11,53,18.70
2012,07,05,11,54,18.80
2012,07,05,11,55,18.80
2012,07,05,11,56,18.80
2012,07,05,11,57,18.90
2012,07,05,11,58,18.90
2012,07,05,11,59,19.10
2012,07,05,12,00,19.20
2012,07,05,12,01,19.40
2012,07,05,12,02,19.40
2012,07,05,12,03,19.20
2012,07,05,12,04,19.00
2012,07,05,12,05,18.90
2012,07,05,12,06,18.80
2012,07,05,12,07,18.80
2012,07,05,12,08,18.70
2012,07,05,12,09,18.70
2012,07,05,12,10,18.70
2012,07,05,12,11,18.70
2012,07,05,12,12,18.70
2012,07,05,12,13,18.80
2012,07,05,12,14,18.80
2012,07,05,12,15,18.70
2012,07,05,12,16,18.60
2012,07,05,12,17,18.50
2012,07,05,12,18,18.40
2012,07,05,12,19,18.40
2012,07,05,12,20,18.40
2012,07,05,12,21,18.50
2012,07,05,12,22,18.60
2012,07,05,12,23,18.70
2012,07,05,12,24,18.70
2012,07,05,12,25,18.80
2012,07,05,12,26,18.80
2012,07,05,12,27,18.90
2012,07,05,12,28,19.00
2012,07,05,12,29,19.10
2012,07,05,12,30,19.10
2012,07,05,12,31,19.10
2012,07,05,12,32,19.20
2012,07,05,12,33,19.20
2012,07,05,12,34,19.10
2012,07,05,12,35,18.90
2012,07,05,12,36,18.80
2012,07,05,12,37,18.80
2012,07,05,12,38,18.80
2012,07,05,12,39,18.70
2012,07,05,12,40,18.70
2012,07,05,12,41,18.70
2012,07,05,12,42,18.70
2012,07,05,12,43,18.80
2012,07,05,12,44,19.00
2012,07,05,12,45,19.10
2012,07,05,12,46,19.20
2012,07,05,12,47,19.20
2012,07,05,12,48,19.10
2012,07,05,12,49,19.10
2012,07,05,12,50,19.10
2012,07,05,12,51,19.10
2012,07,05,12,52,18.90
2012,07,05,12,53,18.90
2012,07,05,12,54,18.90
2012,07,05,12,55,18.90
2012,07,05,12,56,19.00
2012,07,05,12,57,19.00
2012,07,05,12,58,19.10
2012,07,05,12,59,19.20
2012,07,05,13,00,19.40
2012,07,05,13,01,19.50
2012,07,05,13,02,19.50
2012,07,05,13,03,19.50
2012,07,05,13,04,19.60
2012,07,05,13,05,19.70
2012,07,05,13,06,19.80
2012,07,05,13,07,20.00
2012,07,05,13,08,20.10
2012,07,05,13,09,20.20
2012,07,05,13,10,20.20
2012,07,05,13,11,20.10
2012,07,05,13,12,19.90
2012,07,05,13,13,19.80
2012,07,05,13,14,19.70
2012,07,05,13,15,19.60
2012,07,05,13,16,19.60
2012,07,05,13,17,19.50
2012,07,05,13,18,19.50
2012,07,05,13,19,19.60
2012,07,05,13,20,19.70
2012,07,05,13,21,19.70
2012,07,05,13,22,19.70
2012,07,05,13,23,19.70
2012,07,05,13,24,19.60
2012,07,05,13,25,19.50
2012,07,05,13,26,19.40
2012,07,05,13,27,19.40
2012,07,05,13,28,19.50
2012,07,05,13,29,19.60
2012,07,05,13,30,19.80
2012,07,05,13,31,19.90
2012,07,05,13,32,20.00
2012,07,05,13,33,20.00
2012,07,05,13,34,20.00
2012,07,05,13,35,20.00
2012,07,05,13,36,20.00
2012,07,05,13,37,20.10
2012,07,05,13,38,20.30
2012,07,05,13,39,20.30
2012,07,05,13,40,20.40
2012,07,05,13,41,20.30
2012,07,05,13,42,20.30
2012,07,05,13,43,20.20
2012,07,05,13,44,20.10
2012,07,05,13,45,20.10
2012,07,05,13,46,20.10
2012,07,05,13,47,20.20
2012,07,05,13,48,20.30
2012,07,05,13,49,20.40
2012,07,05,13,50,20.60
2012,07,05,13,51,20.70
2012,07,05,13,52,20.80
2012,07,05,13,53,20.90
2012,07,05,13,54,21.10
2012,07,05,13,55,21.20
2012,07,05,13,56,21.20
2012,07,05,13,57,21.10
2012,07,05,13,58,20.90
2012,07,05,13,59,20.80
2012,07,05,14,00,20.70
2012,07,05,14,01,20.70
2012,07,05,14,02,20.70
2012,07,05,14,03,20.70
2012,07,05,14,04,20.70
2012,07,05,14,05,20.70
2012,07,05,14,06,20.80
2012,07,05,14,07,20.90
2012,07,05,14,08,21.00
2012,07,05,14,09,21.10
2012,07,05,14,10,21.10
2012,07,05,14,11,21.20
2012,07,05,14,12,21.30
2012,07,05,14,13,21.40
2012,07,05,14,14,21.50
2012,07,05,14,15,21.40
2012,07,05,14,16,21.30
2012,07,05,14,17,21.10
2012,07,05,14,18,20.90
2012,07,05,14,19,20.80
2012,07,05,14,20,20.70
2012,07,05,14,21,20.70
2012,07,05,14,22,20.70
2012,07,05,14,23,20.70
2012,07,05,14,24,20.80
2012,07,05,14,25,20.80
2012,07,05,14,26,20.90
2012,07,05,14,27,20.90
2012,07,05,14,28,20.90
2012,07,05,14,29,21.00
2012,07,05,14,30,21.10
2012,07,05,14,31,21.00
2012,07,05,14,32,21.00
2012,07,05,14,33,20.90
2012,07,05,14,34,20.90
2012,07,05,14,35,20.90
2012,07,05,14,36,20.90
2012,07,05,14,37,20.80
2012,07,05,14,38,20.70
2012,07,05,14,39,20.60
2012,07,05,14,40,20.60
2012,07,05,14,41,20.50
2012,07,05,14,42,20.50
2012,07,05,14,43,20.40
2012,07,05,14,44,20.50
2012,07,05,14,45,20.60
2012,07,05,14,46,20.70
2012,07,05,14,47,20.80
2012,07,05,14,48,20.90
2012,07,05,14,49,21.10
2012,07,05,14,50,21.30
2012,07,05,14,51,21.30
2012,07,05,14,52,21.30
2012,07,05,14,53,21.30
2012,07,05,14,54,21.40
2012,07,05,14,55,21.50
2012,07,05,14,56,21.70
2012,07,05,14,57,21.80
2012,07,05,14,58,22.00
2012,07,05,14,59,22.00
2012,07,05,15,00,22.10
2012,07,05,15,01,22.10
2012,07,05,15,02,22.10
2012,07,05,15,03,22.10
2012,07,05,15,04,22.20
2012,07,05,15,05,22.30
2012,07,05,15,06,22.40
2012,07,05,15,07,22.40
2012,07,05,15,08,22.50
2012,07,05,15,09,22.40
2012,07,05,15,10,22.20
2012,07,05,15,11,22.00
2012,07,05,15,12,21.90
2012,07,05,15,13,21.90
2012,07,05,15,14,21.90
2012,07,05,15,15,21.80
2012,07,05,15,16,21.80
2012,07,05,15,17,21.80
2012,07,05,15,18,21.80
2012,07,05,15,19,21.80
2012,07,05,15,20,21.90
2012,07,05,15,21,21.90
2012,07,05,15,22,21.90
2012,07,05,15,23,21.90
2012,07,05,15,24,22.00
2012,07,05,15,25,22.00
2012,07,05,15,26,22.10
2012,07,05,15,27,22.10
2012,07,05,15,28,22.00
2012,07,05,15,29,21.90
2012,07,05,15,30,21.80
2012,07,05,15,31,21.70
2012,07,05,15,32,21.60
2012,07,05,15,33,21.60
2012,07,05,15,34,21.60
2012,07,05,15,35,21.60
2012,07,05,15,36,21.70
2012,07,05,15,37,21.80
2012,07,05,15,38,21.90
2012,07,05,15,39,21.90
2012,07,05,15,40,22.00
2012,07,05,15,41,22.10
2012,07,05,15,42,22.10
2012,07,05,15,43,22.20
2012,07,05,15,44,22.20
2012,07,05,15,45,22.20
2012,07,05,15,46,22.20
2012,07,05,15,47,22.20
2012,07,05,15,48,22.20
2012,07,05,15,49,22.30
2012,07,05,15,50,22.40
2012,07,05,15,51,22.50
2012,07,05,15,52,22.60
2012,07,05,15,53,22.60
2012,07,05,15,54,22.50
2012,07,05,15,55,22.20
2012,07,05,15,56,22.10
2012,07,05,15,57,22.00
2012,07,05,15,58,22.10
2012,07,05,15,59,22.20
2012,07,05,16,00,22.30
2012,07,05,16,01,22.30
2012,07,05,16,02,22.30
2012,07,05,16,03,22.30
2012,07,05,16,04,22.20
2012,07,05,16,05,22.20
2012,07,05,16,06,22.00
2012,07,05,16,07,21.90
2012,07,05,16,08,21.80
2012,07,05,16,09,21.80
2012,07,05,16,10,21.80
2012,07,05,16,11,21.80
2012,07,05,16,12,21.80
2012,07,05,16,13,21.90
2012,07,05,16,14,22.00
2012,07,05,16,15,22.10
2012,07,05,16,16,22.00
2012,07,05,16,17,21.90
2012,07,05,16,18,21.90
2012,07,05,16,19,22.00
2012,07,05,16,20,22.10
2012,07,05,16,21,22.20
2012,07,05,16,22,22.30
2012,07,05,16,23,22.40
2012,07,05,16,24,22.50
2012,07,05,16,25,22.60
2012,07,05,16,26,22.70
2012,07,05,16,27,22.80
2012,07,05,16,28,22.80
2012,07,05,16,29,22.90
2012,07,05,16,30,23.00
2012,07,05,16,31,23.10
2012,07,05,16,32,23.10
2012,07,05,16,33,23.10
2012,07,05,16,34,22.90
2012,07,05,16,35,22.80
2012,07,05,16,36,22.80
2012,07,05,16,37,22.80
2012,07,05,16,38,22.80
2012,07,05,16,39,22.80
2012,07,05,16,40,22.80
2012,07,05,16,41,22.90
2012,07,05,16,42,23.10
2012,07,05,16,43,23.20
2012,07,05,16,44,23.20
2012,07,05,16,45,23.00
2012,07,05,16,46,22.90
2012,07,05,16,47,22.70
2012,07,05,16,48,22.60
2012,07,05,16,49,22.40
2012,07,05,16,50,22.30
2012,07,05,16,51,22.30
2012,07,05,16,52,22.30
2012,07,05,16,53,22.30
2012,07,05,16,54,22.40
2012,07,05,16,55,22.40
2012,07,05,16,56,22.30
2012,07,05,16,57,22.30
2012,07,05,16,58,22.30
2012,07,05,16,59,22.30
2012,07,05,17,00,22.30
2012,07,05,17,01,22.20
2012,07,05,17,02,22.20
2012,07,05,17,03,22.20
2012,07,05,17,04,22.20
2012,07,05,17,05,22.30
2012,07,05,17,06,22.50
2012,07,05,17,07,22.60
2012,07,05,17,08,22.80
2012,07,05,17,09,22.80
2012,07,05,17,10,22.80
2012,07,05,17,11,22.70
2012,07,05,17,12,22.60
2012,07,05,17,13,22.60
2012,07,05,17,14,22.50
2012,07,05,17,15,22.40
2012,07,05,17,16,22.40
2012,07,05,17,17,22.50
2012,07,05,17,18,22.50
2012,07,05,17,19,22.50
2012,07,05,17,20,22.50
2012,07,05,17,21,22.50
2012,07,05,17,22,22.60
2012,07,05,17,23,22.70
2012,07,05,17,24,22.70
2012,07,05,17,25,22.70
2012,07,05,17,26,22.60
2012,07,05,17,27,22.60
2012,07,05,17,28,22.60
2012,07,05,17,29,22.50
2012,07,05,17,30,22.40
2012,07,05,17,31,22.40
2012,07,05,17,32,22.30
2012,07,05,17,33,22.20
2012,07,05,17,34,22.20
2012,07,05,17,35,22.20
2012,07,05,17,36,22.30
2012,07,05,17,37,22.40
2012,07,05,17,38,22.60
2012,07,05,17,39,22.70
2012,07,05,17,40,22.90
2012,07,05,17,41,23.10